Regional Weather Roundup
Issued by NWS

Home | Current Version | Previous Version | Graphics & Text | Print | Product List | Glossary On
Versions: 1 2 3 4 5 6 7 8 9 10 11 12 13 14 15 16 17 18 19 20 21 22 23 24 25 26 27 28 29 30 31 32 33 34 35 36 37 38 39 40 41 42 43 44 45 46 47 48 49 50
193
ASUS43 KLMK 202302
RWRKY
KENTUCKY REGIONAL WEATHER ROUNDUP
NATIONAL WEATHER SERVICE LOUISVILLE KY
700 PM EDT FRI APR 20 2018

NOTE "FAIR" INDICATES FEW OR NO CLOUDS BELOW 12,000 FEET
WITH NO SIGNIFICANT WEATHER AND/OR OBSTRUCTIONS TO VISIBILITY.

KYZ001>023-026-027-061>063-070>075-210000-
WESTERN AND SOUTH CENTRAL KENTUCKY

CITY           SKY/WX    TMP DP  RH WIND       PRES   REMARKS
PADUCAH        FAIR      64  27  24 E13       30.32F
HENDERSON      FAIR      63  29  27 NE6       30.37F
OWENSBORO      FAIR      64  23  21 NE7       30.36F
HOPKINSVILLE   FAIR      63  31  30 E6        30.32F
BOWLING GREEN  FAIR      63  29  27 E8        30.35F
GLASGOW        NOT AVBL
$$

KYZ024-025-028>034-038-045-046-053-210000-
NORTH CENTRAL KENTUCKY

CITY           SKY/WX    TMP DP  RH WIND       PRES   REMARKS
LOUISVILLE/SDF PTSUNNY   63  23  21 VRB3      30.37F
LOUISVILLE/LOU FAIR      62  28  27 E9        30.38F
FORT KNOX      FAIR      61  24  24 E9        30.37F
$$

KYZ035>037-039>044-047>052-055>060-089>105-210000-
NORTHEAST KENTUCKY

CITY           SKY/WX    TMP DP  RH WIND       PRES   REMARKS
LEXINGTON      FAIR      59  25  27 NE10      30.39S
COVINGTON      FAIR      58  22  24 VRB3      30.40S
FRANKFORT      FAIR      61  21  21 E7        30.37F
$$

KYZ054-064>069-076>088-106>120-210000-
SOUTHEAST KENTUCKY

CITY           SKY/WX    TMP DP  RH WIND       PRES   REMARKS
JACKSON        FAIR      60  21  22 VRB3      30.36F
LONDON         FAIR      62  20  19 N7        30.34F
SOMERSET       NOT AVBL
MIDDLESBORO    FAIR      64  24  22 N8        30.32F
MONTICELLO     FAIR      61  30  31 N16       30.36F
$$





USA.gov is the U.S. government's official web portal to all federal, state and local government web resources and services.